| time (UTC) | temp F | wind direction | speed knots | gust knots | rain 1hr in | rain 24hr in | rain mn in | humidity % | barometer mb |
| 20260905031559 | 82 | 168 | 0.0 | 1.7 | 0.00 | 0.00 | 0.00 | 25 | 1002.8 |
| 20260905030121 | 83 | 164 | 0.9 | 2.6 | 0.00 | 0.00 | 0.00 | 25 | 1002.5 |
| 20260905024559 | 83 | 164 | 0.9 | 4.3 | 0.00 | 0.00 | 0.00 | 24 | 1002.4 |
| 20260905023058 | 84 | 176 | 1.7 | 5.2 | 0.00 | 0.00 | 0.00 | 23 | 1002.3 |
| 20260905021557 | 85 | 176 | 0.9 | 6.1 | 0.00 | 0.00 | 0.00 | 22 | 1002.2 |
| 20260905020105 | 86 | 171 | 1.7 | 9.6 | 0.00 | 0.00 | 0.00 | 21 | 1002.1 |
| 20260905014556 | 87 | 194 | 5.2 | 10.4 | 0.00 | 0.00 | 0.00 | 20 | 1002.1 |
| 20260905013054 | 88 | 183 | 4.3 | 11.3 | 0.00 | 0.00 | 0.00 | 20 | 1002.1 |
| 20260905011554 | 88 | 209 | 5.2 | 13.0 | 0.00 | 0.00 | 0.00 | 19 | 1002.1 |
| 20260905010101 | 89 | 200 | 3.5 | 12.2 | 0.00 | 0.00 | 0.00 | 19 | 1002.1 |
| 20260905004609 | 90 | 204 | 2.6 | 8.7 | 0.00 | 0.00 | 0.00 | 19 | 1002.0 |
| 20260905003052 | 90 | 163 | 5.2 | 10.4 | 0.00 | 0.00 | 0.00 | 19 | 1002.1 |
| 20260905001551 | 90 | 230 | 3.5 | 11.3 | 0.00 | 0.00 | 0.00 | 19 | 1002.0 |
| 20260905000051 | 91 | 179 | 5.2 | 12.2 | 0.00 | 0.00 | 0.00 | 19 | 1002.2 |
| 20260904234550 | 91 | 224 | 4.3 | 13.9 | 0.00 | 0.00 | 0.00 | 17 | 1002.2 |
| 20260904233053 | 91 | 225 | 7.8 | 13.0 | 0.00 | 0.00 | 0.00 | 17 | 1002.2 |
| 20260904231548 | 91 | 205 | 7.0 | 13.0 | 0.00 | 0.00 | 0.00 | 17 | 1002.3 |
| 20260904230149 | 91 | 213 | 7.8 | 13.0 | 0.00 | 0.00 | 0.00 | 17 | 1002.3 |
| 20260904224550 | 92 | 157 | 5.2 | 17.4 | 0.00 | 0.00 | 0.00 | 18 | 1002.4 |
| 20260904223046 | 92 | 198 | 6.1 | 16.5 | 0.00 | 0.00 | 0.00 | 18 | 1002.5 |
| 20260904221549 | 92 | 211 | 6.1 | 14.8 | 0.00 | 0.00 | 0.00 | 17 | 1002.5 |
| 20260904220046 | 91 | 193 | 9.6 | 19.1 | 0.00 | 0.00 | 0.00 | 17 | 1002.6 |
| 20260904214544 | 92 | 158 | 7.0 | 16.5 | 0.00 | 0.00 | 0.00 | 16 | 1002.8 |
| 20260904213044 | 91 | 182 | 8.7 | 17.4 | 0.00 | 0.00 | 0.00 | 16 | 1003.0 |
| 20260904211542 | 92 | 186 | 8.7 | 15.6 | 0.00 | 0.00 | 0.00 | 16 | 1003.0 |
| 20260904210049 | 91 | 226 | 8.7 | 21.7 | 0.00 | 0.00 | 0.00 | 18 | 1003.2 |
| 20260904204540 | 91 | 188 | 9.6 | 15.6 | 0.00 | 0.00 | 0.00 | 20 | 1003.3 |
| 20260904203040 | 91 | 205 | 9.6 | 15.6 | 0.00 | 0.00 | 0.00 | 19 | 1003.3 |
| 20260904201538 | 90 | 185 | 10.4 | 18.2 | 0.00 | 0.00 | 0.00 | 19 | 1003.5 |
| 20260904200035 | 90 | 264 | 4.3 | 20.0 | 0.00 | 0.00 | 0.00 | 20 | 1003.6 |
| 20260904194533 | 90 | 234 | 6.1 | 18.2 | 0.00 | 0.00 | 0.00 | 21 | 1003.9 |
| 20260904193033 | 90 | 213 | 9.6 | 17.4 | 0.00 | 0.00 | 0.00 | 21 | 1003.9 |
| 20260904191529 | 89 | 237 | 7.0 | 20.9 | 0.00 | 0.00 | 0.00 | 24 | 1003.8 |
| 20260904190029 | 89 | 205 | 6.1 | 14.8 | 0.00 | 0.00 | 0.00 | 26 | 1004.1 |
| 20260904184527 | 88 | 182 | 7.0 | 13.0 | 0.00 | 0.00 | 0.00 | 26 | 1004.4 |
| 20260904183028 | 88 | 218 | 9.6 | 17.4 | 0.00 | 0.00 | 0.00 | 27 | 1004.6 |
| 20260904181524 | 88 | 204 | 8.7 | 16.5 | 0.00 | 0.00 | 0.00 | 26 | 1004.7 |
| 20260904180022 | 87 | 170 | 7.8 | 17.4 | 0.00 | 0.00 | 0.00 | 29 | 1004.7 |
| 20260904174520 | 87 | 186 | 7.0 | 17.4 | 0.00 | 0.00 | 0.00 | 29 | 1005.0 |
| 20260904173017 | 86 | 178 | 2.6 | 13.0 | 0.00 | 0.00 | 0.00 | 32 | 1005.0 |
| 20260904171514 | 85 | 171 | 8.7 | 18.2 | 0.00 | 0.00 | 0.00 | 33 | 1005.0 |
| 20260904170017 | 85 | 168 | 9.6 | 14.8 | 0.00 | 0.00 | 0.00 | 33 | 1005.1 |
| 20260904164512 | 85 | 176 | 4.3 | 13.0 | 0.00 | 0.00 | 0.00 | 35 | 1005.1 |
| 20260904163009 | 84 | 165 | 2.6 | 7.0 | 0.00 | 0.00 | 0.00 | 34 | 1005.1 |
| 20260904161506 | 82 | 118 | 0.0 | 5.2 | 0.00 | 0.00 | 0.00 | 35 | 1005.2 |
| 20260904160008 | 82 | 205 | 0.0 | 5.2 | 0.00 | 0.00 | 0.00 | 35 | 1005.3 |
| 20260904154501 | 81 | 171 | 1.7 | 6.1 | 0.00 | 0.00 | 0.00 | 36 | 1005.4 |
| 20260904153122 | 79 | 157 | 2.6 | 5.2 | 0.00 | 0.00 | 0.00 | 36 | 1005.4 |
| 20260904151552 | 77 | 167 | 0.9 | 4.3 | 0.00 | 0.00 | 0.00 | 38 | 1005.4 |
| 20260904150049 | 75 | 166 | 0.9 | 3.5 | 0.00 | 0.00 | 0.00 | 39 | 1005.5 |
| 20260904144545 | 74 | 164 | 0.0 | 0.9 | 0.00 | 0.00 | 0.00 | 39 | 1005.6 |
| 20260904143038 | 71 | 164 | 0.0 | 2.6 | 0.00 | 0.00 | 0.00 | 42 | 1005.5 |
| 20260904141541 | 70 | 164 | 1.7 | 5.2 | 0.00 | 0.00 | 0.00 | 44 | 1005.4 |
| 20260904140037 | 67 | 154 | 1.7 | 5.2 | 0.00 | 0.00 | 0.00 | 48 | 1005.3 |
| 20260904134536 | 65 | 157 | 0.0 | 0.9 | 0.00 | 0.00 | 0.00 | 52 | 1005.1 |
| 20260904133033 | 64 | 157 | 0.0 | 1.7 | 0.00 | 0.00 | 0.00 | 53 | 1004.9 |
| 20260904131539 | 62 | 157 | 0.0 | 2.6 | 0.00 | 0.00 | 0.00 | 55 | 1004.6 |
| 20260904130037 | 60 | 157 | 2.6 | 5.2 | 0.00 | 0.00 | 0.00 | 61 | 1004.4 |
| 20260904124530 | 60 | 241 | 1.7 | 6.1 | 0.00 | 0.00 | 0.00 | 65 | 1004.4 |
| 20260904123029 | 60 | 177 | 0.0 | 2.6 | 0.00 | 0.00 | 0.00 | 67 | 1004.3 |
| 20260904121526 | 60 | 176 | 0.0 | 3.5 | 0.00 | 0.00 | 0.00 | 62 | 1003.9 |
| 20260904120024 | 60 | 139 | 0.0 | 3.5 | 0.00 | 0.00 | 0.00 | 63 | 1003.8 |
| 20260904114523 | 60 | 140 | 0.0 | 0.0 | 0.00 | 0.00 | 0.00 | 65 | 1003.7 |
| 20260904113025 | 60 | 140 | 0.0 | 0.9 | 0.00 | 0.00 | 0.00 | 64 | 1003.4 |
| 20260904111519 | 61 | 140 | 0.0 | 0.9 | 0.00 | 0.00 | 0.00 | 67 | 1003.3 |
| 20260904110017 | 61 | 140 | 0.0 | 0.9 | 0.00 | 0.00 | 0.00 | 67 | 1003.1 |
| 20260904104515 | 61 | 140 | 0.0 | 1.7 | 0.00 | 0.00 | 0.00 | 63 | 1002.9 |
| 20260904103012 | 62 | 140 | 0.0 | 0.9 | 0.00 | 0.00 | 0.00 | 64 | 1002.9 |
| 20260904101610 | 62 | 140 | 0.0 | 0.0 | 0.00 | 0.00 | 0.00 | 61 | 1002.7 |
| 20260904100008 | 62 | 140 | 0.0 | 0.0 | 0.00 | 0.00 | 0.00 | 58 | 1002.6 |
| 20260904094505 | 63 | 140 | 0.0 | 1.7 | 0.00 | 0.00 | 0.00 | 59 | 1002.6 |
| 20260904093003 | 63 | 140 | 0.0 | 1.7 | 0.00 | 0.00 | 0.00 | 57 | 1002.4 |
| 20260904091501 | 64 | 140 | 0.0 | 1.7 | 0.00 | 0.00 | 0.00 | 58 | 1002.3 |
| 20260904090057 | 65 | 140 | 0.0 | 1.7 | 0.00 | 0.00 | 0.00 | 55 | 1002.2 |
| 20260904084556 | 66 | 140 | 0.0 | 1.7 | 0.00 | 0.00 | 0.00 | 52 | 1002.2 |
| 20260904083108 | 67 | 138 | 0.0 | 0.9 | 0.00 | 0.00 | 0.00 | 47 | 1002.0 |
| 20260904081553 | 67 | 137 | 0.0 | 3.5 | 0.00 | 0.00 | 0.00 | 46 | 1002.1 |
| 20260904080053 | 66 | 138 | 0.9 | 2.6 | 0.00 | 0.00 | 0.00 | 45 | 1002.1 |
| 20260904074604 | 66 | 138 | 1.7 | 3.5 | 0.00 | 0.00 | 0.00 | 50 | 1002.1 |
| 20260904073051 | 67 | 138 | 0.0 | 3.5 | 0.00 | 0.00 | 0.00 | 52 | 1002.2 |
| 20260904071545 | 68 | 53 | 0.0 | 0.0 | 0.00 | 0.00 | 0.00 | 51 | 1002.1 |
| 20260904070044 | 69 | 53 | 0.0 | 1.7 | 0.00 | 0.00 | 0.00 | 43 | 1002.0 |
| 20260904064541 | 69 | 53 | 0.0 | 1.7 | 0.00 | 0.00 | 0.00 | 43 | 1001.8 |
| 20260904063045 | 68 | 53 | 0.0 | 1.7 | 0.00 | 0.00 | 0.00 | 43 | 1001.7 |
| 20260904061540 | 69 | 53 | 0.0 | 0.0 | 0.00 | 0.00 | 0.00 | 44 | 1001.6 |
| 20260904060032 | 70 | 53 | 0.0 | 3.5 | 0.00 | 0.00 | 0.00 | 41 | 1001.5 |
| 20260904054535 | 69 | 40 | 1.7 | 3.5 | 0.00 | 0.00 | 0.00 | 42 | 1001.4 |
| 20260904053036 | 69 | 40 | 0.0 | 3.5 | 0.00 | 0.00 | 0.00 | 42 | 1001.4 |
| 20260904051532 | 70 | 152 | 0.0 | 1.7 | 0.00 | 0.00 | 0.00 | 40 | 1001.2 |
| 20260904050031 | 71 | 152 | 0.0 | 0.9 | 0.00 | 0.00 | 0.00 | 40 | 1001.2 |
| 20260904044530 | 71 | 152 | 0.0 | 1.7 | 0.00 | 0.00 | 0.00 | 41 | 1001.3 |
| 20260904043028 | 73 | 152 | 0.9 | 2.6 | 0.00 | 0.00 | 0.00 | 40 | 1001.4 |
| 20260904041534 | 75 | 152 | 0.9 | 2.6 | 0.00 | 0.00 | 0.00 | 36 | 1001.3 |
| 20260904040028 | 79 | 153 | 0.0 | 1.7 | 0.00 | 0.00 | 0.00 | 32 | 1001.2 |
| 20260904034527 | 80 | 153 | 0.0 | 0.9 | 0.00 | 0.00 | 0.00 | 26 | 1001.2 |
| 20260904033026 | 81 | 153 | 0.0 | 0.0 | 0.00 | 0.00 | 0.00 | 25 | 1001.2 |